Showing default

KUIPER-00454, 68948

Orbit data source: Space-Track

KUIPER-00454, 68948 is a payload satellite owned by Kuiper Systems (US) in LEO that was launched on Thu, 30 Apr 2026 UTC via an ARIANE 64 launch vehicle from the French Guiana (FRGUI). Payload-class satellites include a variety of spacecraft equipped with specific instruments for various scientific and technological missions. These include communications satellites like Starlink; space stations such as the ISS; scientific satellites like the Hubble; Earth observation satellites from companies like Planet Labs, Umbra, and HawkEye 360; GPS; miniature CubeSats for education and research; and military/defense satellites.

Loading next visibility...
Identifier
68948, 2026-098AF
Orbit
LEO
Country
Flag of USUS
Related business
Manufacturer
Kuiper Systems
Mission
Operational spacecraft
Bus & Motor
KUIPER, Unknown motor
Mass
~490 kg wet, ~490 kg dry
Launch date (UTC)
2026-04-30 (1 month ago)
Launch vehicle
ARIANE 64
Launch site
French Guiana (FRGUI)
Object type
Payload
Rocket body
Debris
Shape & HBR
Unknown
Radar Cross Section
Large (>1 m²)

Expand to show TLE details & history
Last TLE update: 17 hours ago

TLE from 17 hours ago
0 KUIPER-00454
1 68948U 26098AF  26150.40580272  .00027430  00000-0  98614-3 0  9999
2 68948  51.8772 154.3140 0016410  78.0229 282.2592 15.28310039  4607
Epoch: 2026-05-30T09:44Z
TLE epoch observation values (Epoch: 2026-05-30T09:44:21.355Z)
Latitude
-0.00003°
Longitude
120.3027°
Altitude
479.252 km
Speed
7.629 km/s
True Right ascension
10h 17m 15s
True Declination
0° 00' 00"
Sunlit
Object was in daylight at epoch
Visualization orbit readout
Latitude
Unknown
Longitude
Unknown
Altitude
Unknown
Speed
Unknown
Apparent Right ascension
Unknown
Apparent Declination
Unknown
Sunlit
N/A
Visualization observer readout
Local Sidereal Time
12:23:00
Azimuth
Unknown
Elevation
Unknown
Doppler factor
Unknown
Orbital elements
Apogee altitude
492.585 km
Perigee altitude
470.072 km
Semi-major axis
6,859.465 km
Eccentricity
0.00164
Inclination
51.8772°
RAAN
154.314°
Arg. of periapsis
78.0229°
True anomaly
282.07536°
Mean anomaly
282.2592°
Eccentric anomaly
282.16729°
Mean motion
3.82039 °/min
Orbital period
94.23 mins
BSTAR
0.00098614
Loading maneuver chart data...
Computing Atmospheric mass density...
Loading historical data...
Loading historical data...
Loading historical data...
Loading historical data...
Loading historical data...
Loading historical data...
Loading historical data...

Documentation

Showing up to 5 results
|